User: anonymous   Login
Location: ????
(30.2663°N, 31.2484°E)
Time: 06:40:45
(UTC+00:00)
Language:

Meteor 1-19 Rocket - Orbit

View from above orbital plane
View from above orbital plane
View from above satellite
View from above satellite

Ground track
Ground track

The orbit data is extracted from the following two-line orbital elements,

1 07493U 74083B   23033.26562528 -.00000036  00000-0 -28318-4 0  9999
2 07493  81.1655 309.1652 0077335  66.0192 294.9050 14.07672961477725
Epoch (UTC): 02 February 2023 06:22:30
Eccentricity: 0.0077335
inclination: 81.1655°
perigee height: 811 km
apogee height: 923 km
right ascension of ascending node: 309.1652°
argument of perigee: 66.0192°
revolutions per day: 14.07672961
mean anomaly at epoch: 294.9050°
orbit number at epoch: 47772

The dashed part of the orbit path shows where the satellite is in the earth's shadow,  

DLR